Time,TemperatureF,DewpointF,PressureIn,WindDirection,WindDirectionDegrees,WindSpeedMPH,WindSpeedGustMPH,Humidity,HourlyPrecipIn,Conditions,Clouds,dailyrainin,SolarRadiationWatts/m^2,SoftwareType,DateUTC
2013-08-01 00:00:00,78.4,39.7,29.97,SW,225,9.0,14.0,25,0.00,,---,0.00,0.00,VWS V14.01,2013-08-01 07:00:00,
2013-08-01 00:12:00,77.7,40.0,29.96,WSW,241,12.0,14.0,26,0.00,,,0.00,0,weatherlink.com 1.10,2013-08-01 07:12:00,
2013-08-01 00:15:00,77.8,40.2,29.96,SW,225,8.0,14.0,26,0.00,,---,0.00,0.00,VWS V14.01,2013-08-01 07:15:00,
2013-08-01 00:27:00,77.4,40.0,29.96,SW,218,7.0,15.0,26,0.00,,,0.00,0,weatherlink.com 1.10,2013-08-01 07:27:00,
2013-08-01 00:30:00,77.4,39.9,29.96,SW,225,9.0,15.0,26,0.00,,---,0.00,0.00,VWS V14.01,2013-08-01 07:30:00,
2013-08-01 00:42:00,77.0,40.0,29.95,SW,232,10.0,15.0,27,0.00,,,0.00,0,weatherlink.com 1.10,2013-08-01 07:42:00,
2013-08-01 00:45:00,77.0,40.5,29.95,SW,225,9.0,15.0,27,0.00,,---,0.00,0.00,VWS V14.01,2013-08-01 07:45:00,
2013-08-01 00:57:00,76.7,40.0,29.95,SW,218,11.0,15.0,27,0.00,,,0.00,0,weatherlink.com 1.10,2013-08-01 07:57:00,
2013-08-01 01:00:00,76.7,40.2,29.95,SW,225,9.0,16.0,27,0.00,,---,0.00,0.00,VWS V14.01,2013-08-01 08:00:00,
2013-08-01 01:12:00,76.7,39.0,29.95,SW,214,9.0,13.0,26,0.00,,,0.00,0,weatherlink.com 1.10,2013-08-01 08:12:00,
2013-08-01 01:15:00,76.7,39.3,29.95,SW,225,9.0,17.0,26,0.00,,---,0.00,0.00,VWS V14.01,2013-08-01 08:15:00,
2013-08-01 01:27:00,76.7,39.0,29.94,SW,215,11.0,13.0,26,0.00,,,0.00,0,weatherlink.com 1.10,2013-08-01 08:27:00,
2013-08-01 01:30:00,76.7,39.3,29.94,SW,225,9.0,16.0,26,0.00,,---,0.00,0.00,VWS V14.01,2013-08-01 08:30:00,
2013-08-01 01:43:00,76.1,40.0,29.94,SW,215,11.0,14.0,27,0.00,,,0.00,0,weatherlink.com 1.10,2013-08-01 08:43:00,
2013-08-01 01:45:00,76.2,39.8,29.94,SSW,202,8.0,15.0,27,0.00,,---,0.00,0.00,VWS V14.01,2013-08-01 08:45:00,
2013-08-01 02:00:00,76.1,38.8,29.94,SW,225,8.0,15.0,26,0.00,,---,0.00,0.00,VWS V14.01,2013-08-01 09:00:00,
2013-08-01 02:15:00,75.9,38.6,29.94,SW,225,9.0,15.0,26,0.00,,---,0.00,0.00,VWS V14.01,2013-08-01 09:15:00,
2013-08-01 02:28:00,75.4,38.0,29.95,SSW,200,7.0,17.0,26,0.00,,,0.00,0,weatherlink.com 1.10,2013-08-01 09:28:00,
2013-08-01 02:30:00,75.5,38.2,29.94,SW,225,10.0,17.0,26,0.00,,---,0.00,0.00,VWS V14.01,2013-08-01 09:30:00,
2013-08-01 02:45:00,74.9,37.7,29.95,SSW,202,9.0,15.0,26,0.00,,---,0.00,0.00,VWS V14.01,2013-08-01 09:45:00,
2013-08-01 02:58:00,74.9,38.0,29.95,SSW,202,10.0,14.0,26,0.00,,,0.00,0,weatherlink.com 1.10,2013-08-01 09:58:00,
2013-08-01 03:00:00,74.8,37.7,29.95,SSW,202,8.0,14.0,26,0.00,,---,0.00,0.00,VWS V14.01,2013-08-01 10:00:00,
2013-08-01 03:13:00,74.7,38.0,29.95,SSW,209,14.0,18.0,26,0.00,,,0.00,0,weatherlink.com 1.10,2013-08-01 10:13:00,
2013-08-01 03:15:00,74.7,37.6,29.94,SSW,202,9.0,18.0,26,0.00,,---,0.00,0.00,VWS V14.01,2013-08-01 10:15:00,
2013-08-01 03:30:00,74.9,37.7,29.94,SSW,202,9.0,17.0,26,0.00,,---,0.00,0.00,VWS V14.01,2013-08-01 10:30:00,
2013-08-01 03:45:00,74.9,37.7,29.94,SSW,202,9.0,16.0,26,0.00,,---,0.00,0.00,VWS V14.01,2013-08-01 10:45:00,
2013-08-01 03:58:00,74.2,38.0,29.94,SW,217,8.0,15.0,27,0.00,,,0.00,0,weatherlink.com 1.10,2013-08-01 10:58:00,
2013-08-01 04:00:00,74.4,38.3,29.94,SW,225,9.0,15.0,27,0.00,,---,0.00,0.00,VWS V14.01,2013-08-01 11:00:00,
2013-08-01 04:13:00,74.0,37.0,29.94,SSW,197,6.0,14.0,26,0.00,,,0.00,0,weatherlink.com 1.10,2013-08-01 11:13:00,
2013-08-01 04:15:00,74.0,37.0,29.94,SW,225,8.0,14.0,26,0.00,,---,0.00,0.00,VWS V14.01,2013-08-01 11:15:00,
2013-08-01 04:30:00,73.8,38.7,29.94,SSW,202,8.0,15.0,28,0.00,,---,0.00,0.00,VWS V14.01,2013-08-01 11:30:00,
2013-08-01 04:43:00,73.5,37.0,29.94,SW,226,7.0,10.0,27,0.00,,,0.00,0,weatherlink.com 1.10,2013-08-01 11:43:00,
2013-08-01 04:45:00,73.5,37.5,29.94,SW,225,6.0,11.0,27,0.00,,---,0.00,0.00,VWS V14.01,2013-08-01 11:45:00,
2013-08-01 04:58:00,73.7,37.0,29.94,SSW,212,9.0,14.0,26,0.00,,,0.00,0,weatherlink.com 1.10,2013-08-01 11:58:00,
2013-08-01 05:00:00,73.7,35.7,29.94,SW,225,7.0,14.0,25,0.00,,---,0.00,0.00,VWS V14.01,2013-08-01 12:00:00,
2013-08-01 05:13:00,74.2,35.0,29.94,SSW,209,10.0,11.0,24,0.00,,,0.00,0,weatherlink.com 1.10,2013-08-01 12:13:00,
2013-08-01 05:15:00,74.1,35.0,29.94,SW,225,7.0,12.0,24,0.00,,---,0.00,0.00,VWS V14.01,2013-08-01 12:15:00,
2013-08-01 05:28:00,74.4,36.0,29.93,SSW,213,12.0,16.0,25,0.00,,,0.00,0,weatherlink.com 1.10,2013-08-01 12:28:00,
2013-08-01 05:30:00,74.3,36.2,29.93,SSW,202,8.0,17.0,25,0.00,,---,0.00,0.00,VWS V14.01,2013-08-01 12:30:00,
2013-08-01 05:45:00,74.0,38.9,29.93,SW,225,10.0,18.0,28,0.00,,---,0.00,0.00,VWS V14.01,2013-08-01 12:45:00,
2013-08-01 05:58:00,73.3,38.0,29.94,SSW,208,14.0,17.0,28,0.00,,,0.00,0,weatherlink.com 1.10,2013-08-01 12:58:00,
2013-08-01 06:00:00,73.4,39.2,29.94,SSW,202,9.0,17.0,29,0.00,,---,0.00,0.00,VWS V14.01,2013-08-01 13:00:00,
2013-08-01 06:13:00,72.5,39.0,29.95,SW,226,8.0,18.0,30,0.00,,,0.00,18,weatherlink.com 1.10,2013-08-01 13:13:00,
2013-08-01 06:15:00,72.7,39.5,29.95,SW,225,10.0,19.0,30,0.00,,---,0.00,13.00,VWS V14.01,2013-08-01 13:15:00,
2013-08-01 06:30:00,72.2,39.9,29.95,SW,225,9.0,16.0,31,0.00,,---,0.00,53.00,VWS V14.01,2013-08-01 13:30:00,
2013-08-01 06:43:00,73.2,37.0,29.95,SW,232,6.0,15.0,27,0.00,,,0.00,118,weatherlink.com 1.10,2013-08-01 13:43:00,
2013-08-01 06:45:00,72.6,37.7,29.95,SW,225,8.0,15.0,28,0.00,,---,0.00,104.00,VWS V14.01,2013-08-01 13:45:00,
2013-08-01 07:00:00,74.0,37.9,29.95,SW,225,8.0,17.0,27,0.00,,---,0.00,132.00,VWS V14.01,2013-08-01 14:00:00,
2013-08-01 07:13:00,75.4,38.0,29.95,SSW,210,9.0,20.0,26,0.00,,,0.00,134,weatherlink.com 1.10,2013-08-01 14:13:00,
2013-08-01 07:15:00,74.9,37.7,29.95,SW,225,10.0,20.0,26,0.00,,---,0.00,136.00,VWS V14.01,2013-08-01 14:15:00,
2013-08-01 07:30:00,75.6,38.3,29.95,SSW,202,10.0,20.0,26,0.00,,---,0.00,223.00,VWS V14.01,2013-08-01 14:30:00,
2013-08-01 07:43:00,76.1,41.0,29.96,SSW,193,11.0,18.0,28,0.00,,,0.00,195,weatherlink.com 1.10,2013-08-01 14:43:00,
2013-08-01 07:45:00,76.1,40.7,29.96,SSW,202,10.0,19.0,28,0.00,,---,0.00,235.00,VWS V14.01,2013-08-01 14:45:00,
2013-08-01 07:58:00,76.5,40.0,29.96,SSW,202,10.0,18.0,27,0.00,,,0.00,371,weatherlink.com 1.10,2013-08-01 14:58:00,
2013-08-01 08:00:00,76.2,39.8,29.96,SSW,202,10.0,19.0,27,0.00,,---,0.00,306.00,VWS V14.01,2013-08-01 15:00:00,
2013-08-01 08:13:00,77.9,40.0,29.96,SSW,208,9.0,18.0,26,0.00,,,0.00,429,weatherlink.com 1.10,2013-08-01 15:13:00,
2013-08-01 08:15:00,77.4,39.9,29.96,SSW,202,9.0,18.0,26,0.00,,---,0.00,415.00,VWS V14.01,2013-08-01 15:15:00,
2013-08-01 08:30:00,78.7,40.0,29.96,SSW,202,9.0,16.0,25,0.00,,---,0.00,463.00,VWS V14.01,2013-08-01 15:30:00,
2013-08-01 08:43:00,80.3,40.0,29.96,SSW,211,10.0,17.0,24,0.00,,,0.00,524,weatherlink.com 1.10,2013-08-01 15:43:00,
2013-08-01 08:45:00,79.9,41.0,29.96,SW,225,10.0,18.0,25,0.00,,---,0.00,510.00,VWS V14.01,2013-08-01 15:45:00,
2013-08-01 08:59:00,81.4,40.0,29.96,SW,229,12.0,16.0,23,0.00,,,0.00,573,weatherlink.com 1.10,2013-08-01 15:59:00,
2013-08-01 09:00:00,81.0,39.8,29.97,SSW,202,9.0,16.0,23,0.00,,---,0.00,557.00,VWS V14.01,2013-08-01 16:00:00,
2013-08-01 09:14:00,82.4,40.0,29.97,SSE,168,8.0,15.0,22,0.00,,,0.00,613,weatherlink.com 1.10,2013-08-01 16:14:00,
2013-08-01 09:15:00,82.1,39.5,29.97,SW,225,8.0,15.0,22,0.00,,---,0.00,600.00,VWS V14.01,2013-08-01 16:15:00,
2013-08-01 09:30:00,82.9,39.0,29.97,SSW,202,9.0,16.0,21,0.00,,---,0.00,643.00,VWS V14.01,2013-08-01 16:30:00,
2013-08-01 09:44:00,84.3,40.0,29.96,South,180,7.0,15.0,21,0.00,,,0.00,698,weatherlink.com 1.10,2013-08-01 16:44:00,
2013-08-01 09:45:00,83.9,39.8,29.96,SSW,202,8.0,16.0,21,0.00,,---,0.00,684.00,VWS V14.01,2013-08-01 16:45:00,
2013-08-01 10:00:00,85.6,37.3,29.96,SSW,202,7.0,14.0,18,0.00,,---,0.00,723.00,VWS V14.01,2013-08-01 17:00:00,
2013-08-01 10:14:00,87.2,39.0,29.96,SW,217,9.0,14.0,18,0.00,,,0.00,775,weatherlink.com 1.10,2013-08-01 17:14:00,
2013-08-01 10:15:00,86.9,38.3,29.96,SSW,202,8.0,14.0,18,0.00,,---,0.00,763.00,VWS V14.01,2013-08-01 17:15:00,
2013-08-01 10:29:00,87.8,39.0,29.95,South,189,7.0,17.0,18,0.00,,,0.00,810,weatherlink.com 1.10,2013-08-01 17:29:00,
2013-08-01 10:30:00,87.4,37.3,29.95,South,180,9.0,18.0,17,0.00,,---,0.00,801.00,VWS V14.01,2013-08-01 17:30:00,
2013-08-01 10:44:00,89.5,38.0,29.95,SSW,203,12.0,15.0,16,0.00,,,0.00,842,weatherlink.com 1.10,2013-08-01 17:44:00,
2013-08-01 10:45:00,88.9,37.0,29.95,South,180,7.0,15.0,16,0.00,,---,0.00,831.00,VWS V14.01,2013-08-01 17:45:00,
2013-08-01 10:59:00,90.1,38.0,29.95,SSW,207,9.0,16.0,16,0.00,,,0.00,874,weatherlink.com 1.10,2013-08-01 17:59:00,
2013-08-01 11:00:00,90.0,37.8,29.95,SSW,202,8.0,16.0,16,0.00,,---,0.00,864.00,VWS V14.01,2013-08-01 18:00:00,
2013-08-01 11:15:00,90.4,36.5,29.94,SSW,202,8.0,18.0,15,0.00,,---,0.00,892.00,VWS V14.01,2013-08-01 18:15:00,
2013-08-01 11:29:00,91.4,38.0,29.94,SSW,213,10.0,16.0,15,0.00,,,0.00,919,weatherlink.com 1.10,2013-08-01 18:29:00,
2013-08-01 11:30:00,91.1,37.1,29.93,SSW,202,8.0,17.0,15,0.00,,---,0.00,914.00,VWS V14.01,2013-08-01 18:30:00,
2013-08-01 11:44:00,92.1,36.0,29.93,SSE,167,11.0,17.0,14,0.00,,,0.00,942,weatherlink.com 1.10,2013-08-01 18:44:00,
2013-08-01 11:45:00,91.8,35.9,29.93,South,180,8.0,16.0,14,0.00,,---,0.00,935.00,VWS V14.01,2013-08-01 18:45:00,
2013-08-01 12:00:00,92.6,34.6,29.93,SSW,202,10.0,18.0,13,0.00,,---,0.00,952.00,VWS V14.01,2013-08-01 19:00:00,
2013-08-01 12:15:00,93.0,35.0,29.92,SSW,202,11.0,21.0,13,0.00,,---,0.00,966.00,VWS V14.01,2013-08-01 19:15:00,
2013-08-01 12:30:00,93.6,35.4,29.92,SSW,202,11.0,21.0,13,0.00,,---,0.00,977.00,VWS V14.01,2013-08-01 19:30:00,
2013-08-01 12:45:00,94.7,37.0,29.91,SSW,209,14.0,19.0,13,0.00,,,0.00,979,weatherlink.com 1.10,2013-08-01 19:45:00,
2013-08-01 13:00:00,95.6,35.0,29.91,South,184,12.0,22.0,12,0.00,,,0.00,976,weatherlink.com 1.10,2013-08-01 20:00:00,
2013-08-01 13:15:00,95.8,35.1,29.90,SSW,202,13.0,27.0,12,0.00,,---,0.00,977.00,VWS V14.01,2013-08-01 20:15:00,
2013-08-01 13:30:00,96.3,36.0,29.90,South,181,10.0,24.0,12,0.00,,,0.00,967,weatherlink.com 1.10,2013-08-01 20:30:00,
2013-08-01 13:45:00,97.3,35.0,29.89,SSW,209,16.0,23.0,11,0.00,,,0.00,958,weatherlink.com 1.10,2013-08-01 20:45:00,
2013-08-01 14:00:00,98.2,33.0,29.89,WSW,242,13.0,24.0,10,0.00,,,0.00,944,weatherlink.com 1.10,2013-08-01 21:00:00,
2013-08-01 14:15:00,98.7,31.0,29.88,SSW,202,9.0,22.0,9,0.00,,,0.00,933,weatherlink.com 1.10,2013-08-01 21:15:00,
2013-08-01 14:30:00,99.0,31.0,29.88,WSW,253,13.0,22.0,9,0.00,,,0.00,914,weatherlink.com 1.10,2013-08-01 21:30:00,
2013-08-01 14:45:00,99.4,28.0,29.88,WSW,247,9.0,19.0,8,0.00,,,0.00,891,weatherlink.com 1.10,2013-08-01 21:45:00,
2013-08-01 15:00:00,99.7,29.0,29.86,SSW,212,12.0,23.0,8,0.00,,,0.00,863,weatherlink.com 1.10,2013-08-01 22:00:00,
2013-08-01 15:15:00,99.2,28.0,29.85,WSW,253,13.0,20.0,8,0.00,,,0.00,837,weatherlink.com 1.10,2013-08-01 22:15:00,
2013-08-01 15:22:00,99.0,27.5,29.85,WSW,237,11.0,11.0,8,0.00,,---,0.00,823.00,VWS V14.01,2013-08-01 22:22:00,
2013-08-01 15:27:00,99.0,27.5,29.84,South,188,12.0,17.0,8,0.00,,---,0.00,809.00,VWS V14.01,2013-08-01 22:27:00,
2013-08-01 15:30:00,99.0,27.5,29.84,WSW,248,12.0,20.0,8,0.00,,---,0.00,805.00,VWS V14.01,2013-08-01 22:30:00,
2013-08-01 15:32:00,99.0,24.3,29.84,WSW,245,9.0,15.0,7,0.00,,---,0.00,802.00,VWS V14.01,2013-08-01 22:32:00,
2013-08-01 15:37:00,98.7,27.3,29.84,SW,232,14.0,19.0,8,0.00,,---,0.00,784.00,VWS V14.01,2013-08-01 22:37:00,
2013-08-01 15:43:00,99.0,24.3,29.84,SW,227,12.0,19.0,7,0.00,,---,0.00,772.00,VWS V14.01,2013-08-01 22:43:00,
2013-08-01 15:45:00,99.0,24.3,29.84,SW,229,14.0,19.0,7,0.00,,---,0.00,761.00,VWS V14.01,2013-08-01 22:45:00,
2013-08-01 15:48:00,99.0,24.3,29.84,WSW,241,21.0,21.0,7,0.00,,---,0.00,756.00,VWS V14.01,2013-08-01 22:48:00,
2013-08-01 15:53:00,98.7,24.1,29.84,SW,228,18.0,21.0,7,0.00,,---,0.00,749.00,VWS V14.01,2013-08-01 22:53:00,
2013-08-01 15:59:00,98.5,23.9,29.83,SW,234,12.0,21.0,7,0.00,,---,0.00,726.00,VWS V14.01,2013-08-01 22:59:00,
2013-08-01 16:00:00,98.2,20.1,29.84,SW,226,14.0,21.0,6,0.00,,---,0.00,721.00,VWS V14.01,2013-08-01 23:00:00,
2013-08-01 16:04:00,98.5,24.0,29.83,West,261,13.0,21.0,7,0.00,,,0.00,712,weatherlink.com 1.10,2013-08-01 23:04:00,
2013-08-01 16:09:00,98.2,23.7,29.83,SW,226,12.0,22.0,7,0.00,,---,0.00,701.00,VWS V14.01,2013-08-01 23:09:00,
2013-08-01 16:14:00,98.0,23.6,29.83,West,274,8.0,22.0,7,0.00,,---,0.00,687.00,VWS V14.01,2013-08-01 23:14:00,
2013-08-01 16:15:00,98.0,23.6,29.83,WSW,243,14.0,22.0,7,0.00,,---,0.00,687.00,VWS V14.01,2013-08-01 23:15:00,
2013-08-01 16:19:00,98.0,23.6,29.83,WSW,257,12.0,18.0,7,0.00,,---,0.00,677.00,VWS V14.01,2013-08-01 23:19:00,
2013-08-01 16:25:00,98.0,23.6,29.83,SW,222,14.0,22.0,7,0.00,,---,0.00,659.00,VWS V14.01,2013-08-01 23:25:00,
2013-08-01 16:30:00,97.5,19.6,29.82,SW,233,13.0,22.0,6,0.00,,---,0.00,645.00,VWS V14.01,2013-08-01 23:30:00,
2013-08-01 16:35:00,97.5,23.2,29.82,SW,223,16.0,22.0,7,0.00,,---,0.00,631.00,VWS V14.01,2013-08-01 23:35:00,
2013-08-01 16:40:00,97.3,23.1,29.82,WSW,257,11.0,22.0,7,0.00,,---,0.00,613.00,VWS V14.01,2013-08-01 23:40:00,
2013-08-01 16:45:00,97.1,22.9,29.82,SW,236,18.0,22.0,7,0.00,,---,0.00,598.00,VWS V14.01,2013-08-01 23:45:00,
2013-08-01 16:50:00,97.1,22.9,29.82,WNW,286,14.0,24.0,7,0.00,,---,0.00,578.00,VWS V14.01,2013-08-01 23:50:00,
2013-08-01 16:55:00,96.8,25.9,29.82,SW,214,17.0,24.0,8,0.00,,---,0.00,483.00,VWS V14.01,2013-08-01 23:55:00,
2013-08-01 17:00:00,96.6,25.7,29.81,SW,233,20.0,24.0,8,0.00,,---,0.00,545.00,VWS V14.01,2013-08-02 00:00:00,
2013-08-01 17:05:00,96.6,25.7,29.82,SW,233,19.0,21.0,8,0.00,,---,0.00,529.00,VWS V14.01,2013-08-02 00:05:00,
2013-08-01 17:10:00,96.1,23.0,29.82,SW,231,16.0,24.0,7,0.00,,,0.00,512,weatherlink.com 1.10,2013-08-02 00:10:00,
2013-08-01 17:15:00,95.9,25.2,29.82,WSW,239,11.0,23.0,8,0.00,,---,0.00,473.00,VWS V14.01,2013-08-02 00:15:00,
2013-08-01 17:20:00,95.9,25.2,29.82,SSW,209,16.0,21.0,8,0.00,,---,0.00,482.00,VWS V14.01,2013-08-02 00:20:00,
2013-08-01 17:26:00,95.4,24.9,29.82,SW,234,13.0,22.0,8,0.00,,---,0.00,462.00,VWS V14.01,2013-08-02 00:26:00,
2013-08-01 17:30:00,95.4,24.9,29.81,WSW,246,19.0,22.0,8,0.00,,---,0.00,445.00,VWS V14.01,2013-08-02 00:30:00,
2013-08-01 17:32:00,95.1,24.6,29.81,SSW,204,17.0,22.0,8,0.00,,---,0.00,443.00,VWS V14.01,2013-08-02 00:32:00,
2013-08-01 17:37:00,94.7,27.2,29.81,SW,236,16.0,22.0,9,0.00,,---,0.00,429.00,VWS V14.01,2013-08-02 00:37:00,
2013-08-01 17:42:00,94.3,26.9,29.81,WSW,251,16.0,29.0,9,0.00,,---,0.00,410.00,VWS V14.01,2013-08-02 00:42:00,
2013-08-01 17:45:00,94.3,26.9,29.81,SW,236,18.0,29.0,9,0.00,,---,0.00,399.00,VWS V14.01,2013-08-02 00:45:00,
2013-08-01 17:47:00,94.3,26.9,29.81,SW,226,20.0,21.0,9,0.00,,---,0.00,392.00,VWS V14.01,2013-08-02 00:47:00,
2013-08-01 17:52:00,94.3,34.0,29.81,SW,234,17.0,25.0,12,0.00,,---,0.00,380.00,VWS V14.01,2013-08-02 00:52:00,
2013-08-01 17:57:00,94.0,26.6,29.81,WSW,237,19.0,25.0,9,0.00,,---,0.00,360.00,VWS V14.01,2013-08-02 00:57:00,
2013-08-01 18:00:00,93.8,26.5,29.81,WSW,250,17.0,26.0,9,0.00,,---,0.00,348.00,VWS V14.01,2013-08-02 01:00:00,
2013-08-01 18:02:00,93.8,29.1,29.81,WSW,253,19.0,21.0,10,0.00,,---,0.00,346.00,VWS V14.01,2013-08-02 01:02:00,
2013-08-01 18:08:00,93.6,26.4,29.81,SW,235,12.0,25.0,9,0.00,,---,0.00,325.00,VWS V14.01,2013-08-02 01:08:00,
2013-08-01 18:13:00,93.4,28.8,29.81,SW,223,17.0,27.0,10,0.00,,---,0.00,306.00,VWS V14.01,2013-08-02 01:13:00,
2013-08-01 18:15:00,93.2,26.1,29.81,WSW,238,17.0,27.0,9,0.00,,---,0.00,299.00,VWS V14.01,2013-08-02 01:15:00,
2013-08-01 18:19:00,92.9,28.4,29.81,WSW,240,17.0,25.0,10,0.00,,---,0.00,287.00,VWS V14.01,2013-08-02 01:19:00,
2013-08-01 18:24:00,92.5,28.1,29.80,West,267,18.0,27.0,10,0.00,,---,0.00,269.00,VWS V14.01,2013-08-02 01:24:00,
2013-08-01 18:29:00,92.3,30.3,29.80,WSW,247,23.0,29.0,11,0.00,,---,0.00,253.00,VWS V14.01,2013-08-02 01:29:00,
2013-08-01 18:30:00,92.1,27.8,29.81,SW,223,16.0,29.0,10,0.00,,---,0.00,248.00,VWS V14.01,2013-08-02 01:30:00,
2013-08-01 18:34:00,91.8,29.9,29.80,WSW,245,11.0,23.0,11,0.00,,---,0.00,236.00,VWS V14.01,2013-08-02 01:34:00,
2013-08-01 18:40:00,91.4,29.6,29.80,WSW,243,28.0,28.0,11,0.00,,---,0.00,221.00,VWS V14.01,2013-08-02 01:40:00,
2013-08-01 18:45:00,91.0,31.4,29.80,SW,228,17.0,28.0,12,0.00,,---,0.00,204.00,VWS V14.01,2013-08-02 01:45:00,
2013-08-01 18:50:00,90.5,31.0,29.81,WSW,241,14.0,23.0,12,0.00,,---,0.00,190.00,VWS V14.01,2013-08-02 01:50:00,
2013-08-01 18:55:00,90.1,32.7,29.80,SW,231,23.0,25.0,13,0.00,,---,0.00,176.00,VWS V14.01,2013-08-02 01:55:00,
2013-08-01 19:00:00,89.7,32.4,29.81,SW,236,14.0,25.0,13,0.00,,---,0.00,156.00,VWS V14.01,2013-08-02 02:00:00,
2013-08-01 19:05:00,89.3,32.1,29.81,SW,235,17.0,25.0,13,0.00,,---,0.00,139.00,VWS V14.01,2013-08-02 02:05:00,
2013-08-01 19:11:00,88.8,31.7,29.80,SW,220,20.0,30.0,13,0.00,,---,0.00,118.00,VWS V14.01,2013-08-02 02:11:00,
2013-08-01 19:15:00,88.2,31.2,29.81,WSW,249,18.0,30.0,13,0.00,,---,0.00,93.00,VWS V14.01,2013-08-02 02:15:00,
2013-08-01 19:16:00,88.4,31.4,29.81,SW,230,25.0,30.0,13,0.00,,---,0.00,98.00,VWS V14.01,2013-08-02 02:16:00,
2013-08-01 19:21:00,88.0,31.0,29.81,SW,228,19.0,24.0,13,0.00,,---,0.00,65.00,VWS V14.01,2013-08-02 02:21:00,
2013-08-01 19:26:00,87.6,32.6,29.81,WSW,237,13.0,24.0,14,0.00,,---,0.00,21.00,VWS V14.01,2013-08-02 02:26:00,
2013-08-01 19:30:00,87.0,33.8,29.81,WSW,243,15.0,24.0,15,0.00,,---,0.00,40.00,VWS V14.01,2013-08-02 02:30:00,
2013-08-01 19:31:00,87.0,33.8,29.81,WSW,244,19.0,24.0,15,0.00,,---,0.00,40.00,VWS V14.01,2013-08-02 02:31:00,
2013-08-01 19:36:00,86.5,33.4,29.81,SW,234,22.0,23.0,15,0.00,,---,0.00,26.00,VWS V14.01,2013-08-02 02:36:00,
2013-08-01 19:42:00,85.9,32.9,29.81,SSW,197,16.0,24.0,15,0.00,,---,0.00,12.00,VWS V14.01,2013-08-02 02:42:00,
2013-08-01 19:45:00,85.5,34.2,29.81,SW,229,12.0,24.0,16,0.00,,---,0.00,9.00,VWS V14.01,2013-08-02 02:45:00,
2013-08-01 19:47:00,85.5,34.2,29.81,WSW,256,23.0,23.0,16,0.00,,---,0.00,9.00,VWS V14.01,2013-08-02 02:47:00,
2013-08-01 19:52:00,85.1,35.4,29.82,WSW,241,14.0,23.0,17,0.00,,---,0.00,7.00,VWS V14.01,2013-08-02 02:52:00,
2013-08-01 19:57:00,84.7,35.1,29.82,SW,234,20.0,23.0,17,0.00,,---,0.00,0.00,VWS V14.01,2013-08-02 02:57:00,
2013-08-01 20:00:00,84.5,35.0,29.82,WSW,240,15.0,23.0,17,0.00,,---,0.00,0.00,VWS V14.01,2013-08-02 03:00:00,
2013-08-01 20:02:00,84.3,36.2,29.82,SW,232,12.0,17.0,18,0.00,,---,0.00,0.00,VWS V14.01,2013-08-02 03:02:00,
2013-08-01 20:07:00,84.0,36.0,29.82,SW,230,12.0,26.0,18,0.00,,---,0.00,0.00,VWS V14.01,2013-08-02 03:07:00,
2013-08-01 20:12:00,83.8,35.8,29.82,WSW,249,18.0,26.0,18,0.00,,---,0.00,0.00,VWS V14.01,2013-08-02 03:12:00,
2013-08-01 20:15:00,83.6,37.0,29.82,WSW,243,22.0,26.0,19,0.00,,---,0.00,0.00,VWS V14.01,2013-08-02 03:15:00,
2013-08-01 20:17:00,83.4,36.9,29.82,SW,235,13.0,22.0,19,0.00,,---,0.00,0.00,VWS V14.01,2013-08-02 03:17:00,
2013-08-01 20:23:00,83.0,36.5,29.82,WSW,249,13.0,23.0,19,0.00,,---,0.00,0.00,VWS V14.01,2013-08-02 03:23:00,
2013-08-01 20:28:00,82.8,36.4,29.82,SW,225,18.0,25.0,19,0.00,,---,0.00,0.00,VWS V14.01,2013-08-02 03:28:00,
2013-08-01 20:30:00,82.6,36.2,29.82,SW,222,13.0,25.0,19,0.00,,---,0.00,0.00,VWS V14.01,2013-08-02 03:30:00,
2013-08-01 20:34:00,82.6,36.2,29.82,WSW,241,12.0,16.0,19,0.00,,---,0.00,0.00,VWS V14.01,2013-08-02 03:34:00,
2013-08-01 20:39:00,82.2,37.2,29.83,SW,233,8.0,22.0,20,0.00,,---,0.00,0.00,VWS V14.01,2013-08-02 03:39:00,
2013-08-01 20:44:00,82.0,37.0,29.82,SW,221,17.0,22.0,20,0.00,,---,0.00,0.00,VWS V14.01,2013-08-02 03:44:00,
2013-08-01 20:45:00,82.0,37.0,29.82,SW,236,18.0,23.0,20,0.00,,---,0.00,0.00,VWS V14.01,2013-08-02 03:45:00,
2013-08-01 20:50:00,82.0,37.0,29.83,WSW,241,22.0,22.0,20,0.00,,---,0.00,0.00,VWS V14.01,2013-08-02 03:50:00,
2013-08-01 20:55:00,81.6,36.7,29.83,WSW,243,18.0,22.0,20,0.00,,---,0.00,0.00,VWS V14.01,2013-08-02 03:55:00,
2013-08-01 21:00:00,81.4,36.5,29.83,SW,225,20.0,24.0,20,0.00,,---,0.00,0.00,VWS V14.01,2013-08-02 04:00:00,
2013-08-01 21:01:00,81.4,36.5,29.82,SW,236,18.0,26.0,20,0.00,,---,0.00,0.00,VWS V14.01,2013-08-02 04:01:00,
2013-08-01 21:02:00,81.4,36.5,29.83,WSW,243,18.0,18.0,20,0.00,,---,0.00,0.00,VWS V14.01,2013-08-02 04:02:00,
2013-08-01 21:07:00,81.4,36.5,29.82,WSW,256,13.0,22.0,20,0.00,,---,0.00,0.00,VWS V14.01,2013-08-02 04:07:00,
2013-08-01 21:12:00,81.2,36.4,29.82,WSW,249,17.0,24.0,20,0.00,,---,0.00,0.00,VWS V14.01,2013-08-02 04:12:00,
2013-08-01 21:15:00,81.1,36.3,29.83,WSW,242,20.0,24.0,20,0.00,,---,0.00,0.00,VWS V14.01,2013-08-02 04:15:00,
2013-08-01 21:16:00,81.1,36.3,29.83,WSW,239,21.0,25.0,20,0.00,,---,0.00,0.00,VWS V14.01,2013-08-02 04:16:00,
2013-08-01 21:22:00,81.1,37.5,29.83,WSW,251,14.0,23.0,21,0.00,,---,0.00,0.00,VWS V14.01,2013-08-02 04:22:00,
2013-08-01 21:27:00,80.7,37.2,29.84,WSW,258,9.0,23.0,21,0.00,,---,0.00,0.00,VWS V14.01,2013-08-02 04:27:00,
2013-08-01 21:30:00,80.3,36.8,29.84,SW,214,8.0,23.0,21,0.00,,---,0.00,0.00,VWS V14.01,2013-08-02 04:30:00,
2013-08-01 21:32:00,80.3,36.8,29.84,WSW,241,13.0,13.0,21,0.00,,---,0.00,0.00,VWS V14.01,2013-08-02 04:32:00,
2013-08-01 21:37:00,80.3,36.8,29.84,West,261,12.0,20.0,21,0.00,,---,0.00,0.00,VWS V14.01,2013-08-02 04:37:00,
2013-08-01 21:42:00,80.3,36.8,29.84,SW,228,16.0,21.0,21,0.00,,---,0.00,0.00,VWS V14.01,2013-08-02 04:42:00,
2013-08-01 21:45:00,80.3,36.8,29.84,SW,228,8.0,21.0,21,0.00,,---,0.00,0.00,VWS V14.01,2013-08-02 04:45:00,
2013-08-01 21:47:00,80.3,36.8,29.84,WSW,240,11.0,11.0,21,0.00,,---,0.00,0.00,VWS V14.01,2013-08-02 04:47:00,
2013-08-01 22:00:00,80.1,36.7,29.85,WSW,248,14.0,22.0,21,0.00,,---,0.00,0.00,VWS V14.01,2013-08-02 05:00:00,
2013-08-01 22:06:00,80.1,36.0,29.85,West,259,10.0,20.0,20,0.00,,,0.00,0,weatherlink.com 1.10,2013-08-02 05:06:00,
2013-08-01 22:15:00,80.0,36.6,29.86,SW,225,11.0,19.0,21,0.00,,---,0.00,0.00,VWS V14.01,2013-08-02 05:15:00,
2013-08-01 22:21:00,79.8,36.0,29.86,SW,216,13.0,17.0,21,0.00,,,0.00,0,weatherlink.com 1.10,2013-08-02 05:21:00,
2013-08-01 22:30:00,79.5,36.2,29.87,SSW,202,10.0,16.0,21,0.00,,---,0.00,0.00,VWS V14.01,2013-08-02 05:30:00,
2013-08-01 22:36:00,78.8,34.0,29.87,SSW,207,9.0,16.0,20,0.00,,,0.00,0,weatherlink.com 1.10,2013-08-02 05:36:00,
2013-08-01 22:45:00,78.7,35.5,29.87,SSW,202,10.0,17.0,21,0.00,,---,0.00,0.00,VWS V14.01,2013-08-02 05:45:00,
2013-08-01 22:51:00,78.1,35.0,29.87,SSW,209,12.0,17.0,21,0.00,,,0.00,0,weatherlink.com 1.10,2013-08-02 05:51:00,
2013-08-01 23:00:00,78.0,34.9,29.87,SW,225,11.0,17.0,21,0.00,,---,0.00,0.00,VWS V14.01,2013-08-02 06:00:00,
2013-08-01 23:06:00,77.6,35.0,29.88,SSW,205,9.0,18.0,21,0.00,,,0.00,0,weatherlink.com 1.10,2013-08-02 06:06:00,
2013-08-01 23:15:00,77.5,35.7,29.88,SW,225,10.0,18.0,22,0.00,,---,0.00,0.00,VWS V14.01,2013-08-02 06:15:00,
2013-08-01 23:21:00,77.4,36.0,29.87,SSW,203,13.0,17.0,22,0.00,,,0.00,0,weatherlink.com 1.10,2013-08-02 06:21:00,
2013-08-01 23:30:00,77.4,36.7,29.88,SSW,202,10.0,16.0,23,0.00,,---,0.00,0.00,VWS V14.01,2013-08-02 06:30:00,
2013-08-01 23:36:00,77.6,37.0,29.88,SW,224,5.0,17.0,23,0.00,,,0.00,0,weatherlink.com 1.10,2013-08-02 06:36:00,
2013-08-01 23:45:00,77.5,36.8,29.88,SW,225,11.0,20.0,23,0.00,,---,0.00,0.00,VWS V14.01,2013-08-02 06:45:00,
2013-08-01 23:51:00,77.2,37.0,29.88,SW,233,14.0,17.0,23,0.00,,,0.00,0,weatherlink.com 1.10,2013-08-02 06:51:00,